Weather reports worldwide

Advertisment
Blencathra, United Kingdom (99143): temperature & dewpoint: 15.10.2017 06:00:00 - 21.10.2017 06:00:00 (BST)Blencathra, United Kingdom (99143): precipitation: 15.10.2017 06:00:00 - 21.10.2017 06:00:00 (BST)
Date & Time tt [°C] td [°C] rr [mm]
21.10.2017 06:00:00 - - -
21.10.2017 05:00:00 - - -
21.10.2017 04:00:00 - - -
21.10.2017 03:00:00 - - -
21.10.2017 02:00:00 - - -
21.10.2017 01:00:00 - - -
21.10.2017 00:00:00 - - -
20.10.2017 23:00:00 - - -
20.10.2017 22:00:00 - - -
20.10.2017 21:00:00 - - 0,0
20.10.2017 20:00:00 9,4 6,8 0,0
20.10.2017 19:00:00 9,7 6,3 0,0
20.10.2017 18:00:00 10,0 7,9 0,0
20.10.2017 17:00:00 10,9 8,6 0,0
20.10.2017 16:00:00 11,7 8,9 0,0
20.10.2017 15:00:00 12,8 10,5 0,0
20.10.2017 14:00:00 12,8 10,4 0,0
20.10.2017 13:00:00 13,5 11,4 0,0
20.10.2017 12:00:00 12,3 10,8 0,0
20.10.2017 11:00:00 12,0 11,1 0,0
20.10.2017 10:00:00 11,4 11,2 0,0
20.10.2017 09:00:00 11,1 10,9 0,0
20.10.2017 08:00:00 11,0 10,8 0,0
20.10.2017 07:00:00 11,1 10,8 0,0
20.10.2017 06:00:00 11,1 10,6 0,0
20.10.2017 05:00:00 11,4 10,5 0,0
20.10.2017 04:00:00 11,8 10,9 0,8
20.10.2017 03:00:00 12,0 10,9 0,4
20.10.2017 02:00:00 11,8 10,9 1,6
20.10.2017 01:00:00 11,8 10,7 0,4
20.10.2017 00:00:00 - - 0,2
19.10.2017 23:00:00 - - 0,0
19.10.2017 22:00:00 - - 0,0
19.10.2017 21:00:00 - - 0,0
19.10.2017 20:00:00 - - 0,8
19.10.2017 19:00:00 - - 0,4
19.10.2017 18:00:00 - - 0,4
19.10.2017 17:00:00 - - 0,4
19.10.2017 16:00:00 - - 0,0
19.10.2017 15:00:00 - - 0,0
19.10.2017 14:00:00 - - 10,4
19.10.2017 13:00:00 - - 0,0
19.10.2017 12:00:00 11,8 9,4 0,0
19.10.2017 11:00:00 11,1 9,1 0,0
19.10.2017 10:00:00 11,1 9,2 0,0
19.10.2017 09:00:00 10,6 9,2 0,0
19.10.2017 08:00:00 10,6 9,3 0,0
19.10.2017 07:00:00 10,7 9,5 0,0
19.10.2017 06:00:00 10,3 9,6 0,0
19.10.2017 05:00:00 10,4 9,4 0,0
19.10.2017 04:00:00 10,5 9,3 0,0
19.10.2017 03:00:00 10,2 9,2 0,0
19.10.2017 02:00:00 10,5 9,1 0,0
19.10.2017 01:00:00 10,5 9,0 0,0
19.10.2017 00:00:00 10,3 8,3 0,0
18.10.2017 23:00:00 10,4 8,1 0,0
18.10.2017 22:00:00 10,4 7,9 0,0
18.10.2017 21:00:00 10,6 7,8 0,0
18.10.2017 20:00:00 10,4 7,4 0,0
18.10.2017 19:00:00 10,7 7,1 0,0
18.10.2017 18:00:00 10,7 7,0 0,0
18.10.2017 17:00:00 10,7 7,2 0,0
18.10.2017 16:00:00 10,9 7,8 0,0
18.10.2017 15:00:00 11,4 7,2 0,0
18.10.2017 14:00:00 11,7 7,9 0,0
18.10.2017 13:00:00 12,0 7,9 0,0
18.10.2017 12:00:00 11,6 8,7 0,0
18.10.2017 11:00:00 11,0 8,4 0,0
18.10.2017 10:00:00 10,2 8,6 0,0
18.10.2017 09:00:00 8,5 7,6 0,0
18.10.2017 08:00:00 8,3 7,5 0,0
18.10.2017 07:00:00 8,3 7,4 0,0
18.10.2017 06:00:00 8,4 7,5 0,0
18.10.2017 05:00:00 8,3 7,4 0,0
18.10.2017 04:00:00 7,7 6,7 0,0
18.10.2017 03:00:00 8,0 7,0 0,0
18.10.2017 02:00:00 8,8 8,0 0,0
18.10.2017 01:00:00 8,8 8,2 0,2
18.10.2017 00:00:00 8,9 8,4 0,0
17.10.2017 23:00:00 8,9 8,5 0,0
17.10.2017 22:00:00 9,0 8,6 0,4
17.10.2017 21:00:00 9,3 8,5 0,0
17.10.2017 20:00:00 9,8 8,5 0,0
17.10.2017 19:00:00 9,7 8,8 0,4
17.10.2017 18:00:00 10,3 8,1 0,0
17.10.2017 17:00:00 10,6 8,3 0,0
17.10.2017 16:00:00 10,7 8,1 0,0
17.10.2017 15:00:00 10,2 8,2 0,0
17.10.2017 14:00:00 10,0 7,8 0,2
17.10.2017 13:00:00 9,4 8,2 0,2
17.10.2017 12:00:00 10,1 7,0 0,0
17.10.2017 11:00:00 9,9 6,8 0,0
17.10.2017 10:00:00 9,9 6,6 0,0
17.10.2017 09:00:00 9,8 6,5 0,0
17.10.2017 08:00:00 9,9 6,6 0,0
17.10.2017 07:00:00 10,0 6,8 0,0
17.10.2017 06:00:00 10,0 7,0 0,0
17.10.2017 05:00:00 10,3 6,8 0,0
17.10.2017 04:00:00 10,1 7,4 0,2
17.10.2017 03:00:00 10,5 7,9 0,6
17.10.2017 02:00:00 10,9 8,9 1,6
17.10.2017 01:00:00 11,1 9,4 0,8
17.10.2017 00:00:00 11,1 9,6 1,4
16.10.2017 23:00:00 10,8 9,7 1,6
16.10.2017 22:00:00 10,9 9,5 1,0
16.10.2017 21:00:00 11,0 9,2 1,4
16.10.2017 20:00:00 11,4 8,9 0,2
16.10.2017 19:00:00 13,0 7,8 0,0
16.10.2017 18:00:00 13,6 7,4 0,0
16.10.2017 17:00:00 15,0 6,7 0,0
16.10.2017 16:00:00 17,5 8,9 0,0
16.10.2017 15:00:00 17,6 13,6 0,2
16.10.2017 14:00:00 17,0 13,9 0,0
16.10.2017 13:00:00 17,0 13,0 0,0
16.10.2017 12:00:00 17,2 12,0 0,0
16.10.2017 11:00:00 14,0 11,5 0,4
16.10.2017 10:00:00 12,9 11,8 0,8
16.10.2017 09:00:00 13,3 11,7 0,6
16.10.2017 08:00:00 13,2 11,8 0,0
16.10.2017 07:00:00 12,3 11,4 0,0
16.10.2017 06:00:00 12,1 11,1 0,0
16.10.2017 05:00:00 12,4 11,3 0,0
16.10.2017 04:00:00 12,3 11,4 0,0
16.10.2017 03:00:00 12,4 11,5 0,0
16.10.2017 02:00:00 12,3 11,5 0,2
16.10.2017 01:00:00 12,4 11,6 0,0
16.10.2017 00:00:00 12,5 11,9 0,0
15.10.2017 23:00:00 12,6 12,0 0,2
15.10.2017 22:00:00 12,6 12,0 0,2
15.10.2017 21:00:00 12,7 12,0 0,0
15.10.2017 20:00:00 12,6 12,0 0,2
15.10.2017 19:00:00 12,7 12,1 0,4
15.10.2017 18:00:00 13,0 12,2 0,4
15.10.2017 17:00:00 13,1 12,3 0,4
15.10.2017 16:00:00 13,1 12,2 0,2
15.10.2017 15:00:00 13,3 11,9 0,0
15.10.2017 14:00:00 13,3 11,5 0,0
15.10.2017 13:00:00 13,3 11,2 0,0
15.10.2017 12:00:00 13,0 11,0 0,0
15.10.2017 11:00:00 13,4 10,6 0,0
15.10.2017 10:00:00 14,1 11,1 0,0
15.10.2017 09:00:00 14,4 11,1 0,0
15.10.2017 08:00:00 14,2 11,0 0,0
15.10.2017 07:00:00 14,0 10,6 0,0
15.10.2017 06:00:00 14,3 11,0 0,0

tt = temperature
td = dewpoint
rr = precipitation

Next stations